Location: Newark
(7.1028°S, 35.3258°W)
Time: 18:38:23
(UTC+00:00)

Hubble Space Telescope - Pass Details

Date: 24 January 2020
Orbit: 536 x 540 km, 28.5° (Epoch: 16 February)

Event Time Altitude Azimuth Distance (km) Brightness Sun altitude
Rises 21:40:56 0° 266° (W) 2,677 5.9 -13.4°
Reaches altitude 10° 21:43:49 10° 246° (WSW) 1,788 4.9 -14.1°
Maximum altitude 21:46:35 17° 204° (SSW) 1,391 3.5 -14.7°
Drops below altitude 10° 21:49:22 10° 161° (SSE) 1,790 3.5 -15.3°
Sets 21:52:16 0° 141° (SE) 2,682 4.2 -16.0°
